Tracking 22779 objects as of 13-Apr-2021
HD Live streaming from Space Station
objects crossing your sky now

SKYNET 2B

Track SKYNET 2B now!
SKYNET 2B is classified as:


NORAD ID: 7547
Int'l Code: 1974-094A
Perigee: 35,777.3 km
Apogee: 35,818.1 km
Inclination: 8.2 °
Period: 1,436.3 minutes
Semi major axis: 42168 km
RCS: 3.166 m2 (large)
Launch date: November 23, 1974
Source: United Kingdom (UK)
Launch site: AIR FORCE EASTERN TEST RANGE (AFETR)
aabbcc
Your satellite tracking list
Your tracking list is empty




NASA's NSSDC Master Catalog

Two Line Element Set (TLE):
1 07547U 74094A   21102.30864435 -.00000018  00000-0  00000-0 0  9996
2 07547   8.2303 301.2671 0004837 114.6853 257.2675  1.00257581105796
Source of the keplerian elements: AFSPC